Weather in Novy Urgal

Russia / Khabarovsk Krai     51°04′19″N   132°35′46″E
temp.,
°C
wind,
m/s
gust,
m/s
humid.,
%
clouds,
%
prec.,
mm/h
press.,
hPa
HPBL,
m
26 july, mon
mon2601:00+19sse1190100 0.4 100512
04:00+18e0196100 1.8 100511
07:00+19ene1195100 0.4 100538
10:00+19nne1198100 3.3 1004101
13:00+19nne2499100 16.3 1004220
16:00+19n2399100 25.2 1003158
19:00+19n1299100 3.8 100491
22:00+19n23100100 11.7 1004126
27 july, tue
tue2701:00+19n2399100 13.8 1004153
04:00+19nnw1399100 21.8 1004127
07:00+18n1198100 0.8 100522
10:00+20nne1193100 0.9 1006227
13:00+24e017270 0.0 1005827
16:00+26ne1164100 0.1 10041089
19:00+22n1185100 0.3 100411
22:00+20n2397100 2.0 100587
28 july, wed
wed2801:00+19n229897 0.4 100458
04:00+19nne119981 0.9 100323
07:00+20nw119880 0.5 100296
10:00+23sw128999 1.0 1002403
13:00+26s257535 0.4 1001821
16:00+27sw457899 2.7 1000970
19:00+25sw238995 2.7 999206
22:00+21sw2294100 5.4 99921
29 july, thu
thu2901:00+20sw1196100 0.4 99912
04:00+19wsw0097100 0.4 99911
07:00+20w0197100 0.1 99949
10:00+23sw1187100 0.6 999454
13:00+25ssw2273100 0.9 998863
16:00+27wnw336799 2.6 997937
19:00+24wsw118396 2.8 99745
22:00+20w1192100 3.1 99814
30 july, fri
fri3001:00+18wsw1195100 0.0 99711
04:00+17wsw119660 0.0 99711
07:00+18ssw119564 0.0 99760
10:00+23ssw12795 0.1 997499
13:00+25wsw3471100 2.3 996934
16:00+24wsw35825 10.1 996669
19:00+23wsw35870 2.9 996293
22:00+18wsw11940 3.8 99714